カタログに戻る

STARLINK-32643

運用中通信VLEO
NORAD 62233·PAYLOAD·🇺🇸 United States

打ち上げ Dec 5, 2024 から Vandenberg Space Force Base

Loading…

次のパス (今後24時間)

TLE

最新Source: CelesTrak SupGP

元期: Sep 14, 2026, 20:44 UTC

1 62233C 24231R   26257.86437500  .00040292  00000+0  12961-2 0  2577
2 62233  53.1596  46.6487 0001298  82.5597 256.3054 15.31671810    17

AllMySatでSTARLINK-32643をリアルタイム追跡

Download on the App Store